Augusta, GA

12:09 PM EST on December 07, 2016 (GMT -0500)
Augusta Regional At Bush

Weather History for KAGS - May, 2013

Change the Weather History Date:

Friday, May 31, 2013

  Actual Average Record
Temperature  
Mean Temperature 76 °F 76 °F  
Max Temperature 90 °F 89 °F 99 °F (1953)
Min Temperature 62 °F 62 °F 45 °F (1984)
Degree Days  
Heating Degree Days 0 0  
Month to date heating degree days 35 18  
Since 1 July heating degree days 2386 2471  
Cooling Degree Days 11 11  
Month to date cooling degree days 146 210  
Year to date cooling degree days 209 283  
Growing Degree Days 26 (Base 50)    
Moisture  
Dew Point 66 °F    
Average Humidity 72    
Maximum Humidity 100    
Minimum Humidity 44    
Precipitation  
Precipitation T in 0.12 in 4.44 in (1981)
Month to date precipitation 2.26 2.65  
Year to date precipitation 19.60 17.50  
Sea Level Pressure  
Sea Level Pressure 30.17 in    
Wind  
Wind Speed 4 mph (SE)    
Max Wind Speed 13 mph    
Max Gust Speed 28 mph    
Visibility 6 miles    
Events Fog    
T = Trace of Precipitation, MM = Missing Value Source: NWS Daily Summary

Daily Weather History Graph

Daily Weather History Graph

Search for Another Location

Airport or City:

Trip Planner

Search our weather history database for the weather conditions in past years. The results will help you decide how hot, cold, wet, or windy it might be!

Date:

Astronomy

May. 31, 2013 Rise Set
Actual Time 6:19 AM EDT 8:31 PM EDT
Civil Twilight 5:51 AM EDT 9:00 PM EDT
Nautical Twilight 5:16 AM EDT 9:35 PM EDT
Astronomical Twilight 4:39 AM EDT 10:12 PM EDT
Moon 1:19 AM EDT (5/31) 1:17 PM EDT (5/31)
Length of Visible Light 15h 09m
Length of Day
14h 12m
Waning Gibbous, 51% of the Moon is Illuminated
May 31
Waning Gibbous
May 31
Last Quarter
Jun 8
New
Jun 16
First Quarter
Jun 23
Full

Hourly Weather History & Observations

Time (EDT) Temp. Heat Index Dew Point Humidity Pressure Visibility Wind Dir Wind Speed Gust Speed Precip Events Conditions
12:53 AM 68.0 °F - 64.0 °F 87% 30.19 in 10.0 mi ESE 4.6 mph - N/A   Clear
1:53 AM 64.9 °F - 64.0 °F 97% 30.19 in 10.0 mi ESE 3.5 mph - N/A   Clear
2:53 AM 63.0 °F - 62.1 °F 97% 30.19 in 8.0 mi Calm Calm - N/A   Clear
3:03 AM 62.6 °F - 62.6 °F 100% 30.19 in 1.8 mi Calm Calm - N/A   Scattered Clouds
3:12 AM 62.6 °F - 62.6 °F 100% 30.19 in 1.5 mi Calm Calm - N/A   Mostly Cloudy
3:14 AM 62.6 °F - 62.6 °F 100% 30.19 in 3.0 mi Calm Calm - N/A   Mostly Cloudy
3:23 AM 64.4 °F - 62.6 °F 94% 30.19 in 10.0 mi Calm Calm - N/A   Scattered Clouds
3:42 AM 62.6 °F - 60.8 °F 94% 30.18 in 7.0 mi Calm Calm - N/A   Partly Cloudy
3:50 AM 62.6 °F - 60.8 °F 94% 30.18 in 1.8 mi Calm Calm - N/A   Scattered Clouds
3:53 AM 63.0 °F - 62.1 °F 97% 30.18 in 1.8 mi Calm Calm - N/A   Partly Cloudy
4:02 AM 62.6 °F - 60.8 °F 94% 30.18 in 2.0 mi Calm Calm - N/A   Partly Cloudy
4:15 AM 62.6 °F - 62.6 °F 100% 30.18 in 0.8 mi Calm Calm - N/A   Scattered Clouds
4:32 AM 62.6 °F - 62.6 °F 100% 30.18 in 2.0 mi Calm Calm - N/A   Mostly Cloudy
4:37 AM 62.6 °F - 62.6 °F 100% 30.18 in 7.0 mi Calm Calm - N/A   Mostly Cloudy
4:53 AM 63.0 °F - 63.0 °F 100% 30.17 in 5.0 mi Calm Calm - N/A   Overcast
5:18 AM 64.4 °F - 64.4 °F 100% 30.18 in 4.0 mi Calm Calm - N/A   Overcast
5:23 AM 66.2 °F - 66.2 °F 100% 30.18 in 1.5 mi Calm Calm - N/A   Overcast
5:33 AM 66.2 °F - 66.2 °F 100% 30.17 in 0.5 mi Calm Calm - N/A Fog Fog
5:43 AM 68.0 °F - 66.2 °F 94% 30.17 in 0.2 mi SE 3.5 mph - N/A Fog Fog
5:53 AM 68.0 °F - 68.0 °F 100% 30.17 in 0.2 mi Calm Calm - N/A Fog Fog
6:25 AM 69.8 °F - 68.0 °F 94% 30.19 in 0.5 mi SE 5.8 mph - N/A Fog Fog
6:41 AM 69.8 °F - 68.0 °F 94% 30.19 in 0.2 mi SSE 4.6 mph - N/A Fog Fog
6:53 AM 69.1 °F - 69.1 °F 100% 30.19 in 0.2 mi Calm Calm - N/A Fog Fog
7:53 AM 70.0 °F - 69.1 °F 97% 30.20 in 0.2 mi SSE 4.6 mph - N/A Fog Fog
8:28 AM 69.8 °F - 69.8 °F 100% 30.21 in 0.5 mi SSE 3.5 mph - N/A Fog Fog
8:50 AM 69.8 °F - 69.8 °F 100% 30.22 in 2.0 mi SSE 5.8 mph - N/A   Overcast
8:53 AM 71.1 °F - 70.0 °F 96% 30.22 in 2.5 mi SSE 6.9 mph - N/A   Overcast
9:25 AM 71.6 °F - 69.8 °F 94% 30.23 in 3.0 mi Variable 3.5 mph - N/A   Overcast
9:53 AM 75.0 °F - 70.0 °F 84% 30.22 in 7.0 mi Calm Calm - N/A   Overcast
10:35 AM 78.8 °F - 69.8 °F 74% 30.22 in 10.0 mi East 5.8 mph - N/A   Mostly Cloudy
10:53 AM 79.0 °F - 69.1 °F 72% 30.22 in 10.0 mi Calm Calm - N/A   Mostly Cloudy
11:00 AM 78.8 °F - 69.8 °F 74% 30.22 in 10.0 mi ESE 4.6 mph - N/A   Overcast
11:45 AM 80.6 °F 83.2 °F 68.0 °F 65% 30.22 in 10.0 mi Calm Calm - N/A   Mostly Cloudy
11:53 AM 82.0 °F 85.5 °F 69.1 °F 65% 30.21 in 10.0 mi Variable 3.5 mph - N/A   Mostly Cloudy
12:53 PM 84.0 °F 87.8 °F 69.1 °F 61% 30.19 in 10.0 mi Calm Calm - 0.00 in   Scattered Clouds
1:53 PM 87.1 °F 90.6 °F 68.0 °F 53% 30.16 in 10.0 mi ESE 3.5 mph - N/A   Partly Cloudy
2:53 PM 88.0 °F 89.6 °F 64.9 °F 46% 30.13 in 10.0 mi East 8.1 mph - N/A   Partly Cloudy
3:53 PM 89.1 °F 90.3 °F 64.0 °F 43% 30.11 in 10.0 mi ESE 5.8 mph - N/A   Partly Cloudy
4:53 PM 89.1 °F 90.3 °F 64.0 °F 43% 30.09 in 10.0 mi SSE 10.4 mph - N/A   Scattered Clouds
5:53 PM 84.9 °F 87.6 °F 66.9 °F 55% 30.08 in 10.0 mi SE 6.9 mph - N/A   Mostly Cloudy
6:53 PM 84.9 °F 88.2 °F 68.0 °F 57% 30.09 in 10.0 mi SE 8.1 mph - N/A   Scattered Clouds
7:53 PM 81.0 °F 83.8 °F 68.0 °F 65% 30.09 in 10.0 mi SE 5.8 mph - 0.00 in   Mostly Cloudy
8:53 PM 78.1 °F - 66.0 °F 66% 30.11 in 10.0 mi SSE 8.1 mph - N/A   Partly Cloudy
9:53 PM 73.9 °F - 64.9 °F 73% 30.12 in 10.0 mi SSE 8.1 mph - N/A   Clear
10:53 PM 73.9 °F - 66.0 °F 76% 30.13 in 10.0 mi SSE 6.9 mph - N/A   Clear
11:53 PM 71.1 °F - 66.0 °F 84% 30.14 in 10.0 mi SE 5.8 mph - N/A   Clear